Retour au catalogue

ATLAS 5 CENTAUR DEB

LostHEO
NORAD 53519·DEBRIS·🇺🇸 United States

Lancé Oct 17, 2018 depuis Cape Canaveral Space Force Station

Loading…

Prochains Passages (prochaines 24 heures)

TLE

PériméSource: Space-Track

Époque: Nov 22, 2022, 12:11 UTC

1 53519U 18079HA  22326.50792683 -.00000054  00000-0  00000+0 0  9992
2 53519  11.1594 151.2738 4737621  88.6639 323.2846  1.80822295  5362

Suivez ATLAS 5 CENTAUR DEB en temps réel avec AllMySat

Download on the App Store